User: anonymous   Login
Location: La Vergne
(36.0160°N, 86.5820°W)
Time: 20:23:39
(UTC-05:00)
Language:

Cosmos 1703 Rocket - Orbit

View from above orbital plane
View from above orbital plane
View from above satellite
View from above satellite

Ground track
Ground track

The orbit data is extracted from the following two-line orbital elements,

1 16263U 85108B   17086.81116826 +.00000128 +00000-0 +12800-4 0  9991
2 16263 082.5065 190.6562 0018630 255.0024 225.7416 14.82975333692325
Epoch (UTC): 27 March 2017 19:28:04
Eccentricity: 0.0018630
inclination: 82.5065°
perigee height: 607 km
apogee height: 633 km
right ascension of ascending node: 190.6562°
argument of perigee: 255.0024°
revolutions per day: 14.82975333
mean anomaly at epoch: 225.7416°
orbit number at epoch: 69232

The dashed part of the orbit path shows where the satellite is in the earth's shadow,  

DLR